FW4383 Weather Reports


Display with metric or nautical units.
time (UTC)temp
F
wind
direction
speed
MPH
gust
MPH
rain 1hr
in
rain 24hr
in
rain mn
in
humidity
%
barometer
mb
20260906153107 54 225 0.0 0.0 0.06 0.07 0.04 96 1019.2
20260906150035 54 225 0.0 0.0 0.03 0.04 0.03 96 1019.1
20260906144605 54 225 0.0 0.0 0.02 0.03 0.01 96 1018.8
20260906143031 54 225 0.0 0.0 0.00 0.01 0.01 96 1018.6
20260906141539 54 225 0.0 0.0 0.00 0.01 0.01 96 1018.5
20260906140033 54 225 0.0 0.0 0.00 0.01 0.01 95 1018.3
20260906133109 53 225 0.0 0.0 0.00 0.01 0.01 95 1018.0
20260906131532 53 225 0.0 0.0 0.00 0.01 0.01 95 1018.0
20260906130032 53 225 0.0 0.0 0.00 0.01 0.01 95 1018.0
20260906124531 54 225 0.0 0.0 0.00 0.01 0.01 95 1018.1
20260906123030 54 225 0.0 0.0 0.00 0.01 0.01 95 1018.1
20260906121533 53 225 0.0 0.0 0.00 0.01 0.01 95 1018.1
20260906120033 53 225 0.0 0.0 0.00 0.01 0.01 95 1018.3
20260906114536 53 225 0.0 0.0 0.00 0.01 0.01 95 1018.4
20260906113108 53 225 0.0 0.0 0.00 0.01 0.01 95 1018.4
20260906111531 54 244 0.0 0.0 0.01 0.01 0.01 95 1018.4
20260906104532 54 179 1.0 4.0 0.01 0.01 0.01 94 1018.7
20260906103034 54 135 0.0 0.0 0.01 0.01 0.00 93 1018.7
20260906101535 54 123 1.0 5.0 0.00 0.00 0.00 93 1018.8
20260906100033 54 179 0.0 2.0 0.00 0.00 0.00 92 1018.7
20260906094531 54 180 0.0 0.0 0.00 0.00 0.00 92 1018.8
20260906093144 54 165 1.0 4.0 0.00 0.00 0.00 92 1018.7
20260906091534 54 197 0.0 4.0 0.00 0.00 0.00 92 1018.6
20260906090036 54 202 0.0 3.0 0.00 0.00 0.00 92 1018.6
20260906084535 53 209 0.0 3.0 0.00 0.00 0.00 92 1018.6
20260906083035 53 202 0.0 1.0 0.00 0.00 0.00 92 1018.6
20260906081535 53 202 0.0 0.0 0.00 0.00 0.00 92 1018.6
20260906080034 53 202 0.0 0.0 0.00 0.00 0.00 92 1018.5
20260906074532 53 202 0.0 0.0 0.00 0.00 0.00 91 1018.5
20260906073035 53 202 0.0 0.0 0.00 0.00 0.00 91 1018.6
20260906071531 52 202 0.0 1.0 0.00 0.00 0.00 90 1018.7
20260906070034 52 202 0.0 1.0 0.00 0.00 0.00 88 1018.8
20260906064531 53 202 0.0 1.0 0.00 0.00 0.00 88 1018.9
20260906063107 53 202 0.0 0.0 0.00 0.00 0.00 86 1019.0
20260906061535 55 202 0.0 0.0 0.00 0.00 0.00 84 1019.0
20260906060035 56 202 0.0 0.0 0.00 0.00 0.00 83 1019.0
20260906054536 57 216 0.0 3.0 0.00 0.00 0.00 83 1019.1
20260906053036 57 181 2.0 5.0 0.00 0.00 0.00 82 1019.1
20260906051534 57 194 1.0 5.0 0.00 0.00 0.00 82 1019.0
20260906050032 57 222 0.0 4.0 0.00 0.00 0.00 82 1019.1
20260906044538 57 189 3.0 6.0 0.00 0.00 0.00 83 1019.1
20260906043106 57 179 2.0 8.0 0.00 0.00 0.00 85 1019.1
20260906041532 55 160 3.0 6.0 0.00 0.00 0.00 88 1019.1
20260906040034 55 180 1.0 4.0 0.00 0.00 0.00 87 1019.0
20260906034533 56 180 0.0 0.0 0.00 0.00 0.00 85 1018.8
20260906031608 57 180 0.0 2.0 0.00 0.00 0.00 81 1018.5
20260906030034 59 180 0.0 2.0 0.00 0.00 0.00 80 1018.4
20260906024537 61 180 0.0 2.0 0.00 0.00 0.00 75 1018.3
20260906023039 63 180 0.0 5.0 0.00 0.00 0.00 71 1018.2
20260906023031 65 183 2.0 4.0 0.00 0.00 0.00 70 1018.2
20260906014702 67 217 0.0 4.0 0.00 0.00 0.00 64 1018.2
20260906013030 68 196 2.0 5.0 0.00 0.00 0.00 63 1018.3
20260906011533 68 181 1.0 5.0 0.00 0.00 0.00 60 1018.2
20260906004531 70 192 3.0 7.0 0.00 0.00 0.00 65 1018.5
20260906001644 64 183 2.0 10.0 0.00 0.00 0.00 78 1018.8
20260906000035 64 179 1.0 6.0 0.00 0.00 0.00 76 1018.9
20260905234533 65 267 0.0 6.0 0.00 0.00 0.00 75 1018.6
20260905233147 66 337 0.0 0.0 0.00 0.00 0.00 70 1018.5
20260905231533 66 330 1.0 4.0 0.00 0.00 0.00 66 1018.5
20260905224534 67 309 3.0 8.0 0.00 0.00 0.00 61 1018.4
20260905223034 69 324 2.0 6.0 0.00 0.00 0.00 64 1018.5
20260905221537 69 319 0.0 3.0 0.00 0.00 0.00 63 1018.5
20260905220108 69 337 0.0 4.0 0.00 0.00 0.00 63 1018.6
20260905214536 69 337 0.0 3.0 0.00 0.00 0.00 63 1018.6
20260905210034 68 20 1.0 4.0 0.00 0.00 0.00 64 1019.0
20260905204536 68 68 2.0 4.0 0.00 0.00 0.00 64 1019.0
20260905203031 69 56 1.0 5.0 0.00 0.00 0.00 61 1019.0
20260905200033 68 259 0.0 4.0 0.00 0.00 0.00 63 1019.2
20260905191537 68 1 2.0 5.0 0.00 0.00 0.00 69 1019.8
20260905190035 66 16 1.0 5.0 0.00 0.00 0.00 70 1020.0
20260905183037 63 33 1.0 6.0 0.00 0.00 0.00 78 1020.5
20260905181609 61 65 1.0 5.0 0.00 0.00 0.00 83 1020.7
20260905174535 58 180 0.0 2.0 0.00 0.00 0.00 87 1020.8
20260905173035 58 180 0.0 1.0 0.00 0.00 0.00 90 1020.8
20260905171535 57 180 0.0 2.0 0.00 0.00 0.00 91 1020.8
20260905164533 56 180 0.0 2.0 0.00 0.00 0.00 91 1020.8
20260905163035 55 180 1.0 3.0 0.00 0.00 0.00 92 1020.7
20260905161534 55 180 1.0 4.0 0.00 0.00 0.00 94 1020.7
20260905160031 54 167 0.0 4.0 0.00 0.00 0.00 95 1020.7